Regional Weather Roundup
Issued by NWS

Home | Current Version | Previous Version | Graphics & Text | Print | Product List | Glossary On
Versions: 1 2 3 4 5 6 7 8 9 10 11 12 13 14 15 16 17 18 19 20 21 22 23 24 25 26 27
000
ASUS45 KTFX 281010
RWRMT
MONTANA REGIONAL WEATHER ROUNDUP
NATIONAL WEATHER SERVICE GREAT FALLS MT
400 AM MDT THU APR 28 2016

NOTE: "FAIR" INDICATES FEW OR NO CLOUDS BELOW 12000 FEET WITH NO
SIGNIFICANT WEATHER AND/OR OBSTRUCTIONS TO VISIBILITY.

MTZ001>007-043-281100-
WEST OF THE DIVIDE

CITY           SKY/WX    TMP DP  RH WIND       PRES   REMARKS
KALISPELL      CLOUDY    44  33  65 CALM      30.00S
MISSOULA       CLOUDY    45  30  55 SE18      30.00R
BUTTE          CLOUDY    32  28  85 W5        29.96S
MULLAN PASS    CLEAR     32  27  81 VRB6      29.95S WCI  26
ANACONDA         N/A     34  27  75 N12       29.98S WCI  25
DEER LODGE       N/A     36  28  75 NW7       30.01S WCI  30
EUREKA           N/A     39  32  75 CALM      30.03S
HAMILTON         N/A     45  30  57 N8        29.96R
LIBBY            N/A     36  34  93 CALM      30.03R
PLAINS           N/A     37  30  76 CALM      29.99R
THOMPSON FALLS   N/A     36  34  92 CALM      30.03R
$$

MTZ008-052>055-281100-
SOUTHWEST MONTANA

CITY           SKY/WX    TMP DP  RH WIND       PRES   REMARKS
BOZEMAN        FLURRIES  34  32  92 N6        29.98R WCI  29
DILLON         CLOUDY    35  28  75 NE10      29.92F WCI  27
ENNIS          CLOUDY    32  30  93 N14       29.98S WCI  22
THREE FORKS      N/A     36  36 100 MISG      29.98S
TWIN BRIDGES     N/A     35  27  73 NW18      29.93S WCI  24
$$

MTZ009-010-012-014-046-048-049-054-281100-
EAST SLOPES AND CENTRAL MONTANA

CITY           SKY/WX    TMP DP  RH WIND       PRES   REMARKS
CUT BANK       CLOUDY    32  32 100 E9        30.10S FOG     WCI  24
GREAT FALLS    LGT SNOW  32  31  96 NE10      30.07S FOG     WCI  24
HELENA         CLOUDY    37  32  82 NW6       30.02S
CHOTEAU          N/A     32  32 100 NE8       30.09S FOG     WCI  25
CONRAD           N/A     32  32 100 N5        30.11S
$$

MTZ011-013-016-021-045-047-050-051-281100-
NORTH CENTRAL MONTANA

CITY           SKY/WX    TMP DP  RH WIND       PRES   REMARKS
HAVRE          CLOUDY    36  35  96 CALM      30.14S
LEWISTOWN      LGT SNOW  32  28  85 E8        30.05S FOG     WCI  25
N BAR RANCH    LGT SNOW  30  28  93 E6        30.07S WCI  24
CHINOOK          N/A     37  37 100 CALM      30.15S
$$

MTZ017>020-022>027-061-062-281100-
NORTHEAST MONTANA

CITY           SKY/WX    TMP DP  RH WIND       PRES   REMARKS
GLASGOW        CLOUDY    38  35  89 NW9       30.10S WCI  31
JORDAN           N/A     35  34  96 W5        30.09S
SIDNEY         CLOUDY    39  27  60 NE7       30.08S
WOLF POINT     CLOUDY    38  36  92 E5        30.10R
PLENTYWOOD       N/A     36  21  55 NE12      30.11R WCI  27
POPLAR           N/A     37  30  75 N8        30.11R WCI  31
SCOBEY           N/A     35  19  52 NE9       30.08S WCI  28
$$

MTZ028>42-056>058-281100-
SOUTHCENTRAL AND SOUTHEAST MONTANA

CITY           SKY/WX    TMP DP  RH WIND       PRES   REMARKS
BAKER          CLOUDY    33  31  92 NW9       30.03S WCI  25
BILLINGS       LGT SNOW  32  31  96 NE10      30.03S VSB 1   WCI  24
LIVINGSTON     LGT SNOW  32  29  88 E15       29.98S FOG     WCI  22
MILES CITY     LGT RAIN  36  33  89 N7        30.07R WCI  30
EKALAKA          N/A     32  30  92 N1        29.99R
FORSYTH          N/A     34  34 100 N5        30.08S
LAUREL           N/A     32  26  78 N5        30.01S
ROUNDUP          N/A     32  29  89 CALM      29.97S
$$

REGIONAL REPORTS...DAKOTAS

CITY           SKY/WX    TMP DP  RH WIND       PRES   REMARKS
WILLISTON      CLOUDY    39  25  57 N8        30.09R
MINOT          CLOUDY    39  24  55 N7        30.08R
DICKINSON      CLOUDY    34  29  82 W3        30.00R
BEACH          CLOUDY    32  32 100 NW6       30.06S WCI  26
CROSBY           N/A     30  23  74 N5        30.15S
TIOGA            N/A     32  23  69 NE9       30.15R WCI  24
WATFORD CITY     N/A     39  25  56 NE9       30.07S
BISMARCK       CLOUDY    38  36  92 SE13      30.03R WCI  30
GRAND FORKS    CLOUDY    40  23  50 NE8       30.06R
FARGO          CLOUDY    44  25  47 NE14      29.99S
BUFFALO SD       N/A     34  32  92 N12       29.93R WCI  25
RAPID CITY     LGT SNOW  32  31  96 N14       29.96R FOG     WCI  22
$$

REGIONAL REPORTS...WYOMING/IDAHO/WASHINGTON

CITY           SKY/WX    TMP DP  RH WIND       PRES   REMARKS
GILLETTE       CLOUDY    30  29  96 N7        29.96S WCI  23
SHERIDAN       CLOUDY    32  31  96 N6        30.00R WCI  26
BUFFALO WY     LGT SNOW  30  28  92 NW8       29.96S FOG     WCI  22
CODY           CLOUDY    30  28  93 N6        29.96S WCI  24
YELLOWSTONE LA   N/A     29  21  72 VRB3      29.88S
IDAHO FALLS    CLEAR     33  25  72 CALM      29.82S
SALMON         CLOUDY    43  28  56 CALM      29.90R
BOISE          MOCLDY    46  40  79 CALM      29.81S
SPOKANE        MOCLDY    49  41  74 CALM      29.94R
$$

REGIONAL REPORTS...ALBERTA

CITY           SKY/WX    TMP DP  RH WIND       PRES   REMARKS
EDMONTON       PTCLDY    34  23  64 CALM      30.12S
CALGARY        MOCLDY    37  34  87 S9        30.11S WCI  31
LETHBRIDGE     LGT RAIN  34  34 100 S8G22     30.13S WCI  27
MEDICINE HAT   CLOUDY    39  36  87 W7        30.16S
WATERTON GATE    N/A     34  32  93 N6          N/A  WCI  29
CARDSTON         N/A     34  32  93 NE1         N/A
MILK RIVER       N/A     32  32 100 E3          N/A
$$

REGIONAL REPORTS...SASKATCHEWAN

CITY           SKY/WX    TMP DP  RH WIND       PRES   REMARKS
SWIFT CURRENT  MOCLDY    39  27  60 E8        30.13S
REGINA         CLOUDY    39  21  48 E8        30.19R
SASKATOON        N/A     41  25  52 SE6       30.22R
CYPRESS HILLS    N/A     32  28  86 NE3         N/A
VAL MARIE        N/A     32  28  86 E7          N/A  WCI  26
ROCKGLEN         N/A     36  23  60 E2          N/A
ASSINIBOIA       N/A     32  30  93 S2          N/A
$$




USA.gov is the U.S. government's official web portal to all federal, state and local government web resources and services.